Location: Veytaux
(46.4185°N, 6.9320°E)
Time: 07:56:52
(UTC+00:00)

IDEFIX/ARIANE 42P - Pass Details

Date: 27 May 2022
Orbit: 785 x 802 km, 98.5° (Epoch: 01 July)

Event Time Altitude Azimuth Distance (km) Brightness Sun altitude
Rises 01:10:02 0° 21° (NNE) 3,325 7.5 -18.6°
Reaches altitude 10° 01:12:34 10° 30° (NNE) 2,389 6.3 -18.4°
Maximum altitude 01:17:25 36° 96° (E) 1,247 3.7 -18.0°
Enters shadow 01:21:10 16° 157° (SSE) 2,002 4.3 -17.7°
